[[{"header":{"parameterUnit":"m.s-1","parameterCategory":1,"la1":30.2991,"la2":30.254,"lo1":-89.0895,"lo2":-89.0444,"dy":0.0017,"dx":0.0017,"nx":28,"ny":28,"refTime":"2024-12-02T03:00:00:Z","depth":0,"parameterNumber":2,"parameterNumberName":"U-component_of_WINDS"},"data":[0,0,0,0,0,0,0,0,0,0,0,0,0,0,0,0,0,0,0,0,0,0,0,0,0,0,0,0,0,0,0,0,0,0,0,0,0,0,0,0,0,0,0,0,0,0,0,0,0,0,0,0,0,0,0,0,0,0,0.1876,0.1876,0,0.1848,0.1848,0.1847,0.1851,0.1852,0.1852,0.1853,0.1821,0.182,0.1819,0,0,0,0,0,0,0,0,0,0,0,0,0,0.1933,0.1932,0.1876,0.1876,0.1875,0.1848,0.1847,0.1847,0.1851,0.1852,0.1852,0.1853,0.1822,0.182,0.1819,0,0,0,0,0,0,0,0,0,0,0,0,0,0.1907,0.1932,0.1876,0.1874,0.1874,0.1848,0.1847,0.1847,0.1851,0.1852,0.1852,0.1853,0.1822,0.1821,0.1819,0.1792,0,0,0.1813,0.1812,0,0,0,0,0,0,0,0,0.1908,0.1905,0.1875,0.1874,0.1874,0.1854,0.1856,0.1829,0.1851,0.186,0.1853,0.1853,0.1832,0.1829,0.1822,0.1791,0.179,0.1813,0.1811,0.1811,0.181,0,0,0,0,0,0,0,0.191,0.1906,0.1865,0.1874,0.1874,0.1875,0.1872,0.1851,0.1842,0.1859,0.1859,0.1856,0.1831,0.1824,0.1821,0.1789,0.1813,0.1811,0.181,0.1809,0.1737,0.1737,0,0,0,0,0,0,0.1913,0.1907,0.1866,0.1864,0.1893,0.1873,0.187,0.1859,0.1842,0.184,0.1855,0.1856,0.1827,0.1823,0.182,0.179,0.1811,0.1809,0.1808,0.1738,0.1737,0.1736,0,0,0,0,0,0,0.1914,0.1909,0.1867,0.1886,0.1881,0.1871,0.186,0.1859,0.1851,0.1839,0.1838,0.1849,0.1827,0.1823,0.18,0.1788,0.1808,0.1806,0.1739,0.1738,0.1737,0.1727,0,0,0,0,0,0,0.1915,0.1909,0.1899,0.1886,0.188,0.1847,0.1859,0.1857,0.1848,0.1849,0.1833,0.1831,0.1827,0.1803,0.1798,0.1786,0.1805,0.174,0.1739,0.1737,0.1729,0.1726,0.1724,0,0,0,0,0,0.1917,0.1897,0.1899,0.1894,0.1867,0.1846,0.1843,0.1839,0.1847,0.1837,0.183,0.1832,0.1791,0.18,0.1795,0.1782,0.1741,0.1739,0.1737,0.173,0.1727,0.1724,0,0,0,0,0,0,0.1908,0.1895,0.1897,0.1871,0.186,0.1847,0.1834,0.1836,0.1822,0.1823,0.1819,0.1815,0.1793,0.1785,0.1796,0.1757,0.1767,0.1764,0.1763,0.176,0.1757,0.1759,0.1803,0,0,0,0,0,0.1903,0.1888,0.1877,0.1855,0.185,0.1843,0.1834,0.1833,0.1821,0.1816,0.1807,0.1795,0.178,0.1769,0.1754,0.1728,0.1725,0.1717,0.1715,0.1713,0.171,0.1697,0.1694,0.1731,0.1731,0.1731,0,0,0.1892,0.1883,0.1873,0.1853,0.1845,0.1829,0.1839,0.1822,0.1811,0.1813,0.1791,0.1785,0.1771,0.1747,0.1736,0.174,0.17,0.171,0.1709,0.1707,0.1695,0.1692,0.1689,0.173,0.173,0.173,0,0,0.1864,0.1856,0.1838,0.1829,0.1817,0.1813,0.1809,0.1796,0.1792,0.1771,0.1773,0.1759,0.1732,0.1723,0.1715,0.1687,0.1689,0.1682,0.1669,0.1657,0.1654,0.1651,0.1642,0.1639,0.168,0.168,0.168,0,0.1852,0.1829,0.1828,0.1811,0.1803,0.1806,0.1788,0.178,0.1762,0.1757,0.1762,0.173,0.1721,0.1695,0.1689,0.1682,0.1677,0.1683,0.1655,0.1652,0.165,0.1641,0.1637,0.1679,0.1679,0.1679,0.1679,0,0.1816,0.18,0.1787,0.1772,0.1762,0.1745,0.1741,0.1731,0.1731,0.1727,0.1706,0.1695,0.1679,0.1673,0.1672,0.1648,0.1651,0.1656,0.1665,0.1645,0.1637,0.1634,0.1678,0.1678,0.1678,0.1679,0,0,0.1779,0.1766,0.1761,0.1755,0.1742,0.173,0.1714,0.1699,0.1691,0.168,0.1666,0.1645,0.165,0.164,0.1639,0.1628,0.1608,0.1634,0.1634,0.163,0.1582,0.1579,0.1575,0.161,0.1609,0.1608,0.1584,0,0.1751,0.1722,0.1722,0.1695,0.1682,0.1686,0.1672,0.1663,0.1659,0.1647,0.1642,0.1627,0.1634,0.1629,0.1618,0.1613,0.1598,0.1614,0.1597,0.1596,0.16,0.1571,0.1567,0.1544,0.158,0.158,0.1579,0,0.1713,0.1703,0.1676,0.1667,0.1662,0.1649,0.1637,0.1625,0.1615,0.1613,0.1604,0.1605,0.1589,0.1599,0.1577,0.1588,0.1581,0.1578,0.1577,0.1575,0.1586,0.1568,0.1536,0.1533,0.1574,0.1574,0.1575,0,0.169,0.1669,0.1651,0.1646,0.1635,0.1626,0.1622,0.1613,0.1605,0.1594,0.1589,0.1576,0.1569,0.1559,0.1557,0.1565,0.1535,0.1545,0.1533,0.1533,0.1526,0.1526,0.1493,0.1521,0.1521,0.1522,0.1522,0,0.1659,0.1642,0.1641,0.1629,0.1611,0.1611,0.1593,0.1589,0.1582,0.157,0.1573,0.1561,0.1559,0.1547,0.1545,0.1528,0.1524,0.1522,0.1522,0.1522,0.1522,0.1517,0.1519,0.1521,0.1521,0.1521,0.1521,0,0.163,0.1628,0.1608,0.1601,0.1599,0.1586,0.158,0.1569,0.1567,0.1552,0.1548,0.1544,0.153,0.1527,0.1511,0.151,0.1489,0.149,0.1493,0.1493,0.1481,0.1483,0.1443,0.1438,0.147,0.147,0.1469,0,0.1609,0.1597,0.1589,0.1582,0.1578,0.1566,0.1558,0.1558,0.155,0.154,0.1531,0.1518,0.1508,0.1487,0.1482,0.147,0.1471,0.1458,0.1469,0.147,0.1471,0.1472,0.1471,0.1455,0.1455,0.1455,0.1455,0,0.1574,0.1575,0.1564,0.1554,0.1546,0.1538,0.153,0.1524,0.1523,0.1514,0.1501,0.1493,0.1478,0.1466,0.1454,0.1449,0.1452,0.1452,0.1448,0.1448,0.145,0.145,0.1487,0.1452,0.1452,0.1453,0.1453,0.1453,0.1549,0.1539,0.1533,0.1522,0.1517,0.151,0.15,0.1497,0.1487,0.1475,0.1476,0.1462,0.1455,0.144,0.1435,0.1424,0.1428,0.1423,0.1422,0.142,0.142,0.1452,0.1422,0.1422,0.1422,0.1422,0.1422,0,0.1515,0.1512,0.1501,0.1492,0.1483,0.1488,0.148,0.1473,0.1461,0.1455,0.1445,0.1432,0.142,0.1416,0.1405,0.1397,0.1398,0.1394,0.1395,0.1394,0.1416,0.1421,0.1394,0.1394,0.1394,0.1394,0.1394,0.1394,0.1496,0.148,0.148,0.1462,0.1458,0.1446,0.1441,0.1436,0.1431,0.1415,0.1407,0.1404,0.1399,0.1388,0.1378,0.1377,0.1373,0.1368,0.1368,0.1389,0.1392,0.1395,0.1399,0.1367,0.1367,0.1346,0.1346,0.1346]},{"header":{"parameterUnit":"m.s-1","parameterCategory":1,"la1":30.2991,"la2":30.254,"lo1":-89.0895,"lo2":-89.0444,"dy":0.0017,"dx":0.0017,"nx":28,"ny":28,"refTime":"2024-12-02T03:00:00:Z","depth":0,"parameterNumber":3,"parameterNumberName":"V-component_of_WINDS"},"data":[0,0,0,0,0,0,0,0,0,0,0,0,0,0,0,0,0,0,0,0,0,0,0,0,0,0,0,0,0,0,0,0,0,0,0,0,0,0,0,0,0,0,0,0,0,0,0,0,0,0,0,0,0,0,0,0,0,0,-3.1293,-3.1294,0,-3.1362,-3.1363,-3.1364,-3.1319,-3.1317,-3.1315,-3.1313,-3.1381,-3.1385,-3.1389,0,0,0,0,0,0,0,0,0,0,0,0,0,-3.1118,-3.1122,-3.1293,-3.1294,-3.1294,-3.1362,-3.1363,-3.1364,-3.132,-3.1317,-3.1315,-3.1312,-3.138,-3.1384,-3.1389,0,0,0,0,0,0,0,0,0,0,0,0,0,-3.1191,-3.1123,-3.1293,-3.1281,-3.128,-3.1362,-3.1363,-3.1364,-3.132,-3.1317,-3.1314,-3.1311,-3.1379,-3.1384,-3.139,-3.1486,0,0,-3.1407,-3.1409,0,0,0,0,0,0,0,0,-3.1187,-3.1198,-3.1281,-3.1282,-3.1281,-3.1329,-3.1326,-3.1405,-3.1321,-3.1305,-3.1313,-3.131,-3.1366,-3.1373,-3.1392,-3.1489,-3.1492,-3.1407,-3.1411,-3.1413,-3.1415,0,0,0,0,0,0,0,-3.1182,-3.1195,-3.132,-3.1283,-3.1283,-3.1271,-3.1278,-3.1341,-3.1352,-3.1306,-3.1303,-3.1312,-3.1365,-3.1387,-3.1394,-3.1493,-3.1407,-3.1412,-3.1415,-3.1418,-3.1672,-3.1675,0,0,0,0,0,0,-3.1179,-3.1191,-3.1318,-3.1322,-3.1226,-3.1276,-3.1284,-3.1317,-3.1351,-3.1353,-3.1315,-3.131,-3.1379,-3.1387,-3.1396,-3.151,-3.1413,-3.1418,-3.1421,-3.1668,-3.1672,-3.1676,0,0,0,0,0,0,-3.1175,-3.1191,-3.1315,-3.1256,-3.1271,-3.1283,-3.132,-3.132,-3.1341,-3.1358,-3.1359,-3.1335,-3.1377,-3.1388,-3.1464,-3.1512,-3.1421,-3.1426,-3.1664,-3.1669,-3.1674,-3.1741,0,0,0,0,0,0,-3.117,-3.119,-3.1227,-3.1257,-3.1274,-3.1383,-3.1323,-3.1323,-3.1351,-3.1346,-3.1377,-3.1379,-3.1375,-3.1456,-3.147,-3.1518,-3.143,-3.166,-3.1667,-3.1673,-3.1734,-3.1748,-3.1759,0,0,0,0,0,-3.1164,-3.1243,-3.1229,-3.1245,-3.1321,-3.1386,-3.1396,-3.1391,-3.1355,-3.1393,-3.1403,-3.1378,-3.1505,-3.1464,-3.1479,-3.153,-3.1657,-3.1665,-3.1672,-3.1729,-3.1745,-3.1759,0,0,0,0,0,0,-3.1217,-3.1246,-3.1232,-3.1322,-3.1352,-3.1379,-3.1426,-3.1408,-3.1448,-3.144,-3.1431,-3.1439,-3.1518,-3.1532,-3.1486,-3.1625,-3.1575,-3.1586,-3.1613,-3.1629,-3.1641,-3.1635,-3.1435,0,0,0,0,0,-3.124,-3.1291,-3.1313,-3.1391,-3.1407,-3.1414,-3.1442,-3.1435,-3.1465,-3.1477,-3.1493,-3.1523,-3.1569,-3.1599,-3.1643,-3.1736,-3.1742,-3.1779,-3.1791,-3.1801,-3.181,-3.186,-3.1876,-3.1701,-3.1701,-3.1701,0,0,-3.1286,-3.1308,-3.1341,-3.1402,-3.1424,-3.1476,-3.1425,-3.1482,-3.152,-3.1486,-3.1559,-3.1571,-3.1603,-3.1688,-3.1726,-3.1702,-3.186,-3.181,-3.1818,-3.1822,-3.1869,-3.1886,-3.19,-3.1706,-3.1705,-3.1704,0,0,-3.1398,-3.142,-3.1487,-3.1511,-3.1545,-3.1549,-3.1565,-3.1595,-3.1602,-3.1675,-3.165,-3.1695,-3.1775,-3.1799,-3.1821,-3.1941,-3.1919,-3.1955,-3.2019,-3.2067,-3.2081,-3.2093,-3.2135,-3.2151,-3.1965,-3.1965,-3.1965,0,-3.1451,-3.1529,-3.1523,-3.1583,-3.161,-3.1582,-3.1649,-3.1672,-3.1718,-3.1737,-3.1709,-3.1809,-3.1829,-3.1918,-3.1948,-3.1967,-3.1984,-3.1952,-3.208,-3.2092,-3.2103,-3.2143,-3.2159,-3.1969,-3.1969,-3.1968,-3.1968,0,-3.1593,-3.1647,-3.1697,-3.1744,-3.1776,-3.1839,-3.1842,-3.1875,-3.1866,-3.1872,-3.1947,-3.1969,-3.2017,-3.2037,-3.2028,-3.2126,-3.2109,-3.2081,-3.2031,-3.2124,-3.2161,-3.2177,-3.1975,-3.1973,-3.1972,-3.1971,0,0,-3.1739,-3.1782,-3.18,-3.1821,-3.1857,-3.1899,-3.196,-3.2007,-3.2035,-3.2068,-3.2119,-3.2187,-3.2161,-3.2187,-3.218,-3.2222,-3.2315,-3.2188,-3.2189,-3.2211,-3.2422,-3.2443,-3.2461,-3.2301,-3.2304,-3.2306,-3.2419,0,-3.1852,-3.196,-3.1956,-3.2056,-3.2106,-3.208,-3.2133,-3.216,-3.2168,-3.2211,-3.2218,-3.2267,-3.2229,-3.2244,-3.2285,-3.2295,-3.2357,-3.2287,-3.2346,-3.2349,-3.2339,-3.2481,-3.2503,-3.2609,-3.2434,-3.2436,-3.2438,0,-3.1999,-3.2037,-3.2143,-3.2171,-3.2192,-3.224,-3.2282,-3.2324,-3.2353,-3.2356,-3.2385,-3.2371,-3.2431,-3.238,-3.2463,-3.2415,-3.2439,-3.2447,-3.2451,-3.2456,-3.2399,-3.2489,-3.2643,-3.2659,-3.2461,-3.2459,-3.2458,0,-3.2094,-3.2173,-3.2246,-3.2264,-3.2299,-3.2333,-3.2349,-3.2376,-3.2405,-3.2441,-3.2459,-3.2502,-3.2526,-3.2559,-3.2557,-3.252,-3.2641,-3.2589,-3.2643,-3.2644,-3.267,-3.2668,-3.2829,-3.2686,-3.2686,-3.2686,-3.2685,0,-3.2221,-3.2286,-3.2289,-3.2334,-3.2406,-3.24,-3.2471,-3.2484,-3.2508,-3.2554,-3.2533,-3.2577,-3.2571,-3.2615,-3.2613,-3.2681,-3.2692,-3.2695,-3.2694,-3.2697,-3.2696,-3.2712,-3.2704,-3.269,-3.2689,-3.2688,-3.2687,0,-3.234,-3.2345,-3.2423,-3.2449,-3.2457,-3.2509,-3.2531,-3.2573,-3.2579,-3.2637,-3.2651,-3.266,-3.2709,-3.2711,-3.2768,-3.2767,-3.285,-3.284,-3.284,-3.2838,-3.2892,-3.2887,-3.3069,-3.3092,-3.2934,-3.2936,-3.2937,0,-3.242,-3.247,-3.2502,-3.2532,-3.255,-3.2598,-3.2627,-3.2623,-3.2653,-3.2691,-3.2728,-3.2776,-3.2814,-3.2895,-3.2906,-3.2949,-3.294,-3.3001,-3.2946,-3.2947,-3.294,-3.2937,-3.2942,-3.3011,-3.3013,-3.3014,-3.3015,0,-3.2561,-3.2561,-3.2604,-3.2649,-3.2684,-3.2718,-3.275,-3.2775,-3.2774,-3.281,-3.2861,-3.289,-3.2949,-3.2996,-3.3038,-3.3053,-3.3034,-3.3033,-3.3047,-3.3051,-3.3048,-3.305,-3.2868,-3.3028,-3.3027,-3.3026,-3.3025,-3.3025,-3.2663,-3.2706,-3.2735,-3.2783,-3.2807,-3.2837,-3.2877,-3.2889,-3.2931,-3.2979,-3.2974,-3.303,-3.3058,-3.3112,-3.3131,-3.3174,-3.3153,-3.3174,-3.318,-3.3185,-3.3191,-3.3042,-3.3182,-3.3181,-3.3181,-3.3181,-3.318,0,-3.2803,-3.282,-3.2865,-3.291,-3.2948,-3.2928,-3.2962,-3.2994,-3.3045,-3.3073,-3.3111,-3.3169,-3.3215,-3.3229,-3.3273,-3.3305,-3.3298,-3.3317,-3.3314,-3.3318,-3.3207,-3.319,-3.3322,-3.3322,-3.3322,-3.3322,-3.3322,-3.3322,-3.288,-3.2951,-3.2954,-3.3036,-3.3053,-3.3109,-3.313,-3.3157,-3.3179,-3.3245,-3.3284,-3.3293,-3.3315,-3.3361,-3.3402,-3.3405,-3.3421,-3.3444,-3.3444,-3.334,-3.3326,-3.3312,-3.3296,-3.3448,-3.3448,-3.3551,-3.3552,-3.3552]}]]